QPF
0.03 0.08 0.07 0.04 0.01 0.04 0.03 0.02 0.00 0.00 0.00 0.00 0.00 0.00 0.00 0.00 0.00 0.00 0.00 0.00 0.00 0.00 0.00 0.00 0.00 0.00 0.00 0.00 0.00 0.00 0.00 0.00 0.00 0.00 0.00 0.00 0.00 0.00 0.00 0.00 0.00 0.00 0.00 0.01 0.01 0.02 0.02 0.00 0.00 0.01 0.01 0.00 0.00 0.00
0.05 0.05 0.03 0.04 0.02 0.04 0.03 0.01 0.00 0.00 0.00 0.00 0.00 0.00 0.00 0.00 0.00 0.00 0.00 0.00 0.00 0.00 0.00 0.00 0.00 0.00 0.00 0.00 0.00 0.00 0.00 0.00 0.00 0.00 0.00 0.00 0.00 0.00 0.00 0.00 0.00 0.00 0.00 0.00 0.00 0.01 0.00 0.00 0.00 0.00 0.00 0.00 0.00 0.00
0.13 0.07 0.02 0.05 0.02 0.04 0.02 0.01 0.00 0.00 0.00 0.00 0.00 0.00 0.00 0.00 0.00 0.00 0.00 0.00 0.00 0.00 0.00 0.00 0.00 0.00 0.00 0.00 0.00 0.00 0.00 0.00 0.00 0.00 0.00 0.00 0.00 0.00 0.00 0.00 0.00 0.00 0.00 0.00 0.00 0.00 0.00 0.00 0.00 0.00 0.00 0.00 0.00 0.00
0.16 0.08 0.01 0.05 0.02 0.02 0.04 0.01 0.00 0.00 0.00 0.00 0.00 0.00 0.00 0.00 0.00 0.00 0.00 0.00 0.00 0.00 0.00 0.00 0.00 0.00 0.00 0.00 0.00 0.00 0.00 0.00 0.00 0.00 0.00 0.00 0.00 0.00 0.00 0.00 0.00 0.00 0.00 0.00 0.00 0.00 0.00 0.00 0.00 0.00 0.00 0.00 0.00 0.00
0.20 0.06 0.01 0.03 0.05 0.02 0.06 0.01 0.00 0.00 0.00 0.00 0.00 0.00 0.00 0.00 0.00 0.00 0.00 0.00 0.00 0.00 0.00 0.00 0.00 0.00 0.00 0.00 0.00 0.00 0.00 0.00 0.00 0.00 0.00 0.00 0.00 0.00 0.00 0.00 0.00 0.00 0.00 0.00 0.00 0.00 0.00 0.00 0.00 0.00 0.00 0.00 0.00 0.00
0.14 0.03 0.01 0.01 0.05 0.03 0.03 0.01 0.00 0.00 0.00 0.00 0.00 0.00 0.00 0.00 0.00 0.00 0.00 0.00 0.00 0.00 0.00 0.00 0.00 0.00 0.00 0.00 0.00 0.00 0.00 0.00 0.00 0.00 0.00 0.00 0.00 0.00 0.00 0.00 0.00 0.00 0.00 0.00 0.00 0.00 0.00 0.00 0.00 0.00 0.00 0.00 0.00 0.00
0.15 0.01 0.00 0.01 0.02 0.00 0.01 0.00 0.00 0.00 0.00 0.00 0.00 0.00 0.00 0.00 0.00 0.00 0.00 0.00 0.00 0.00 0.00 0.00 0.00 0.00 0.00 0.00 0.00 0.00 0.00 0.00 0.00 0.00 0.00 0.00 0.00 0.00 0.00 0.00 0.00 0.00 0.00 0.00 0.00 0.00 0.00 0.00 0.00 0.00 0.00 0.00 0.00 0.00
0.12 0.00 0.01 0.01 0.01 0.00 0.00 0.00 0.01 0.02 0.00 0.00 0.00 0.00 0.00 0.00 0.00 0.00 0.00 0.00 0.00 0.00 0.00 0.00 0.01 0.00 0.00 0.00 0.00 0.00 0.00 0.00 0.00 0.00 0.00 0.00 0.00 0.00 0.00 0.00 0.00 0.00 0.00 0.00 0.00 0.00 0.00 0.00 0.00 0.00 0.00 0.00 0.00 0.00
0.04 0.00 0.00 0.00 0.00 0.00 0.00 0.00 0.03 0.02 0.00 0.00 0.00 0.00 0.00 0.00 0.00 0.00 0.00 0.00 0.00 0.00 0.00 0.00 0.00 0.01 0.00 0.00 0.00 0.00 0.00 0.00 0.00 0.00 0.00 0.00 0.00 0.00 0.00 0.00 0.00 0.00 0.00 0.00 0.00 0.00 0.00 0.00 0.00 0.00 0.00 0.00 0.00 0.00
0.01 0.00 0.00 0.00 0.00 0.00 0.00 0.02 0.04 0.01 0.00 0.00 0.00 0.00 0.00 0.00 0.00 0.00 0.00 0.00 0.00 0.00 0.00 0.00 0.00 0.00 0.00 0.00 0.00 0.00 0.00 0.00 0.00 0.00 0.00 0.00 0.00 0.00 0.00 0.00 0.00 0.00 0.00 0.00 0.00 0.00 0.00 0.00 0.00 0.00 0.00 0.00 0.00 0.00
0.00 0.01 0.01 0.00 0.00 0.00 0.00 0.01 0.00 0.00 0.00 0.00 0.00 0.00 0.00 0.00 0.00 0.00 0.00 0.00 0.00 0.00 0.00 0.00 0.00 0.00 0.00 0.00 0.00 0.00 0.00 0.00 0.00 0.00 0.00 0.00 0.00 0.00 0.00 0.00 0.00 0.00 0.00 0.00 0.00 0.00 0.00 0.00 0.00 0.00 0.00 0.00 0.00 0.00
0.02 0.02 0.02 0.01 0.00 0.00 0.00 0.00 0.00 0.00 0.00 0.00 0.00 0.00 0.00 0.00 0.00 0.00 0.00 0.00 0.00 0.00 0.00 0.00 0.00 0.00 0.00 0.00 0.00 0.00 0.00 0.00 0.00 0.00 0.00 0.00 0.00 0.00 0.00 0.00 0.00 0.00 0.00 0.00 0.00 0.00 0.00 0.00 0.00 0.00 0.00 0.00 0.00 0.00
0.02 0.03 0.03 0.01 0.00 0.00 0.00 0.00 0.00 0.00 0.00 0.00 0.00 0.00 0.00 0.00 0.00 0.00 0.00 0.00 0.00 0.00 0.00 0.00 0.00 0.00 0.00 0.00 0.00 0.00 0.00 0.00 0.00 0.00 0.00 0.00 0.00 0.00 0.00 0.00 0.00 0.00 0.00 0.00 0.00 0.00 0.00 0.00 0.00 0.00 0.00 0.00 0.00 0.00
0.02 0.02 0.01 0.01 0.00 0.00 0.00 0.00 0.00 0.00 0.00 0.00 0.00 0.00 0.00 0.00 0.00 0.00 0.00 0.00 0.00 0.00 0.00 0.00 0.00 0.00 0.00 0.00 0.00 0.00 0.00 0.00 0.00 0.00 0.00 0.00 0.00 0.00 0.00 0.00 0.00 0.00 0.00 0.00 0.00 0.00 0.00 0.00 0.00 0.00 0.00 0.00 0.00 0.00
0.01 0.01 0.01 0.00 0.00 0.00 0.00 0.00 0.00 0.00 0.00 0.00 0.00 0.00 0.00 0.00 0.00 0.00 0.00 0.00 0.00 0.00 0.00 0.00 0.00 0.00 0.00 0.00 0.00 0.00 0.00 0.00 0.00 0.00 0.00 0.00 0.00 0.00 0.00 0.00 0.00 0.00 0.00 0.00 0.00 0.00 0.00 0.00 0.00 0.00 0.00 0.00 0.00 0.00
0.02 0.02 0.01 0.00 0.00 0.00 0.00 0.00 0.00 0.00 0.00 0.00 0.00 0.01 0.01 0.01 0.01 0.00 0.01 0.00 0.00 0.00 0.00 0.00 0.00 0.00 0.00 0.00 0.00 0.00 0.00 0.00 0.00 0.00 0.00 0.00 0.00 0.00 0.00 0.00 0.00 0.00 0.00 0.00 0.00 0.00 0.00 0.00 0.00 0.00 0.00 0.00 0.00 0.00
0.02 0.05 0.01 0.00 0.00 0.00 0.00 0.00 0.00 0.00 0.00 0.00 0.00 0.00 0.01 0.02 0.01 0.00 0.00 0.00 0.00 0.00 0.00 0.00 0.00 0.00 0.00 0.00 0.00 0.00 0.00 0.00 0.00 0.00 0.00 0.00 0.00 0.00 0.00 0.00 0.00 0.00 0.00 0.00 0.00 0.00 0.00 0.00 0.00 0.00 0.00 0.00 0.00 0.00
0.01 0.01 0.00 0.00 0.00 0.00 0.00 0.00 0.00 0.00 0.00 0.00 0.01 0.01 0.01 0.01 0.01 0.00 0.00 0.00 0.01 0.00 0.00 0.00 0.00 0.00 0.00 0.00 0.00 0.00 0.00 0.00 0.00 0.00 0.00 0.00 0.00 0.00 0.00 0.00 0.00 0.00 0.00 0.00 0.00 0.00 0.00 0.00 0.00 0.00 0.00 0.00 0.00 0.00
0.00 0.00 0.00 0.00 0.00 0.00 0.00 0.00 0.00 0.00 0.00 0.00 0.01 0.01 0.01 0.01 0.00 0.00 0.00 0.00 0.00 0.00 0.00 0.00 0.00 0.00 0.00 0.00 0.00 0.00 0.00 0.00 0.00 0.00 0.00 0.00 0.00 0.00 0.00 0.00 0.00 0.00 0.00 0.00 0.00 0.00 0.00 0.00 0.00 0.00 0.00 0.00 0.00 0.00
0.00 0.00 0.00 0.00 0.00 0.00 0.00 0.00 0.00 0.00 0.00 0.00 0.00 0.00 0.00 0.00 0.01 0.01 0.00 0.00 0.00 0.00 0.00 0.01 0.01 0.00 0.00 0.00 0.00 0.00 0.00 0.00 0.00 0.00 0.00 0.00 0.00 0.00 0.00 0.00 0.00 0.00 0.00 0.00 0.00 0.00 0.00 0.00 0.00 0.00 0.00 0.00 0.00 0.00
0.00 0.00 0.00 0.00 0.00 0.00 0.00 0.00 0.00 0.00 0.00 0.00 0.00 0.00 0.00 0.00 0.00 0.00 0.00 0.00 0.01 0.01 0.02 0.01 0.00 0.00 0.00 0.00 0.00 0.00 0.00 0.00 0.00 0.00 0.00 0.00 0.00 0.00 0.00 0.00 0.00 0.00 0.00 0.00 0.00 0.00 0.00 0.00 0.00 0.00 0.00 0.00 0.00 0.00
0.00 0.00 0.00 0.00 0.00 0.00 0.00 0.00 0.00 0.00 0.00 0.00 0.00 0.00 0.00 0.00 0.00 0.00 0.00 0.00 0.01 0.00 0.00 0.00 0.00 0.00 0.00 0.00 0.00 0.00 0.00 0.00 0.00 0.00 0.00 0.00 0.00 0.00 0.00 0.00 0.00 0.00 0.00 0.00 0.00 0.00 0.00 0.00 0.00 0.00 0.00 0.00 0.00 0.00
0.00 0.00 0.00 0.00 0.00 0.00 0.00 0.00 0.00 0.00 0.00 0.00 0.00 0.00 0.00 0.00 0.00 0.00 0.00 0.00 0.00 0.00 0.00 0.00 0.00 0.00 0.00 0.00 0.00 0.00 0.00 0.00 0.00 0.00 0.00 0.00 0.00 0.00 0.00 0.00 0.00 0.00 0.00 0.00 0.00 0.00 0.00 0.00 0.00 0.00 0.00 0.00 0.00 0.01
0.00 0.00 0.00 0.00 0.00 0.00 0.00 0.00 0.00 0.00 0.00 0.00 0.00 0.00 0.00 0.00 0.00 0.00 0.00 0.00 0.00 0.00 0.00 0.00 0.00 0.00 0.00 0.00 0.00 0.00 0.00 0.00 0.00 0.00 0.00 0.00 0.00 0.00 0.00 0.00 0.00 0.00 0.00 0.00 0.00 0.00 0.00 0.00 0.00 0.00 0.00 0.00 0.01 0.01
0.00 0.00 0.00 0.00 0.00 0.00 0.00 0.00 0.00 0.00 0.00 0.00 0.00 0.00 0.00 0.00 0.00 0.00 0.00 0.00 0.00 0.00 0.00 0.00 0.00 0.00 0.00 0.00 0.00 0.00 0.00 0.00 0.00 0.00 0.00 0.00 0.00 0.00 0.00 0.00 0.00 0.00 0.00 0.00 0.00 0.00 0.00 0.00 0.00 0.00 0.00 0.01 0.01 0.01
0.00 0.00 0.00 0.00 0.00 0.00 0.00 0.00 0.00 0.00 0.00 0.00 0.00 0.00 0.00 0.00 0.00 0.00 0.00 0.00 0.00 0.00 0.00 0.00 0.00 0.00 0.00 0.00 0.00 0.00 0.00 0.00 0.00 0.00 0.00 0.00 0.00 0.00 0.00 0.00 0.00 0.00 0.00 0.00 0.00 0.00 0.00 0.00 0.00 0.01 0.01 0.01 0.00 0.00
0.00 0.00 0.00 0.00 0.00 0.00 0.00 0.00 0.00 0.00 0.00 0.01 0.01 0.00 0.00 0.00 0.00 0.00 0.00 0.00 0.00 0.00 0.00 0.00 0.00 0.00 0.00 0.00 0.00 0.00 0.00 0.00 0.00 0.00 0.00 0.00 0.00 0.00 0.00 0.00 0.01 0.00 0.00 0.00 0.00 0.01 0.00 0.01 0.01 0.01 0.01 0.01 0.01 0.01
0.00 0.00 0.00 0.00 0.00 0.00 0.00 0.00 0.00 0.00 0.01 0.00 0.01 0.00 0.01 0.00 0.00 0.00 0.00 0.00 0.00 0.00 0.00 0.00 0.00 0.00 0.00 0.00 0.00 0.00 0.00 0.00 0.00 0.00 0.00 0.00 0.00 0.00 0.00 0.00 0.00 0.00 0.00 0.00 0.01 0.01 0.01 0.01 0.01 0.01 0.00 0.00 0.00 0.00
0.00 0.00 0.00 0.00 0.00 0.00 0.00 0.00 0.01 0.00 0.00 0.00 0.01 0.02 0.00 0.00 0.00 0.00 0.00 0.00 0.00 0.00 0.00 0.00 0.00 0.00 0.00 0.00 0.00 0.00 0.01 0.01 0.01 0.01 0.01 0.01 0.01 0.02 0.02 0.01 0.01 0.00 0.00 0.00 0.00 0.00 0.00 0.00 0.00 0.00 0.00 0.00 0.00 0.00
0.00 0.00 0.00 0.00 0.00 0.00 0.00 0.00 0.00 0.00 0.00 0.00 0.00 0.00 0.00 0.00 0.00 0.00 0.00 0.00 0.00 0.01 0.00 0.00 0.00 0.00 0.01 0.01 0.01 0.01 0.00 0.00 0.00 0.01 0.02 0.01 0.01 0.02 0.02 0.01 0.00 0.00 0.00 0.00 0.00 0.00 0.00 0.00 0.00 0.00 0.00 0.00 0.00 0.00
0.00 0.00 0.00 0.00 0.00 0.00 0.00 0.00 0.00 0.00 0.00 0.00 0.00 0.01 0.01 0.01 0.01 0.00 0.00 0.00 0.00 0.00 0.00 0.00 0.01 0.01 0.02 0.02 0.02 0.02 0.01 0.01 0.01 0.01 0.01 0.01 0.01 0.01 0.00 0.00 0.00 0.00 0.00 0.00 0.00 0.00 0.00 0.00 0.00 0.00 0.00 0.00 0.00 0.00
0.01 0.02 0.01 0.01 0.00 0.00 0.00 0.00 0.00 0.00 0.00 0.00 0.01 0.00 0.00 0.01 0.01 0.01 0.00 0.00 0.01 0.01 0.01 0.01 0.01 0.02 0.02 0.02 0.02 0.02 0.01 0.01 0.01 0.01 0.01 0.00 0.00 0.00 0.00 0.00 0.00 0.00 0.00 0.00 0.00 0.00 0.00 0.00 0.00 0.00 0.00 0.00 0.00 0.00
0.01 0.01 0.02 0.01 0.01 0.01 0.01 0.01 0.01 0.00 0.00 0.00 0.01 0.01 0.01 0.01 0.01 0.01 0.01 0.02 0.02 0.02 0.02 0.02 0.02 0.03 0.03 0.02 0.02 0.02 0.01 0.01 0.00 0.00 0.00 0.00 0.00 0.00 0.00 0.00 0.00 0.00 0.00 0.00 0.00 0.00 0.00 0.00 0.00 0.00 0.00 0.00 0.00 0.00
MSLP
1003.72 1004.26 1004.38 1005.08 1005.82 1006.46 1006.93 1007.32 1007.56 1007.76 1008.11 1008.46 1008.47 1008.66 1008.58 1008.33 1008.23 1007.84 1007.37 1006.75 1005.91 1006.60 1007.74 1007.98 1008.26 1008.67 1008.61 1008.72 1009.41 1010.54 1011.58 1011.73 1011.68 1010.77 1009.91 1009.57 1009.19 1009.79 1009.95 1009.92 1010.56 1010.89 1011.28 1012.35 1013.15 1013.99 1015.49 1016.59 1017.31 1017.47 1018.04 1018.47 1019.09 1019.78
1003.17 1003.72 1004.04 1004.77 1005.56 1006.29 1006.82 1007.27 1007.64 1008.01 1008.41 1008.52 1008.57 1008.62 1008.87 1008.50 1008.00 1007.48 1007.08 1007.25 1006.52 1007.19 1009.26 1010.00 1010.18 1010.16 1009.85 1009.67 1009.37 1010.72 1010.42 1010.66 1010.69 1010.09 1009.80 1009.43 1009.88 1010.07 1009.58 1010.39 1011.50 1011.73 1012.06 1012.88 1015.01 1016.31 1017.59 1017.73 1017.72 1017.98 1018.36 1018.97 1019.56 1020.24
1003.08 1003.24 1003.71 1004.56 1005.38 1006.24 1006.87 1007.41 1007.89 1008.30 1008.65 1009.03 1009.02 1008.90 1008.72 1008.44 1007.76 1007.27 1006.98 1007.00 1007.25 1008.10 1009.00 1009.60 1010.68 1011.13 1011.02 1010.92 1010.96 1010.57 1011.02 1011.43 1011.29 1011.11 1010.36 1010.25 1010.01 1009.80 1009.97 1009.79 1011.16 1012.55 1013.31 1014.06 1015.96 1017.64 1018.15 1018.60 1018.88 1018.95 1019.24 1019.83 1020.48 1021.20
1003.05 1002.98 1003.55 1004.46 1005.43 1006.23 1006.88 1007.52 1007.99 1008.44 1008.87 1008.94 1008.98 1008.97 1008.97 1008.47 1008.07 1007.61 1007.61 1007.96 1007.39 1007.75 1009.13 1011.15 1011.33 1011.59 1011.69 1011.32 1011.18 1011.10 1011.35 1011.78 1011.61 1011.20 1010.72 1010.40 1010.24 1010.88 1010.09 1010.52 1011.02 1012.13 1013.45 1014.94 1016.67 1017.79 1018.48 1019.02 1019.65 1020.05 1020.38 1020.95 1021.54 1022.11
1002.99 1002.81 1003.60 1004.51 1005.47 1006.30 1007.05 1007.67 1008.21 1008.55 1008.79 1008.93 1009.04 1009.06 1008.84 1008.62 1008.37 1008.16 1008.67 1008.47 1008.18 1007.72 1009.13 1010.80 1011.70 1012.15 1011.97 1011.78 1011.61 1011.60 1011.65 1011.58 1011.34 1011.19 1011.00 1010.70 1010.84 1011.25 1011.32 1011.58 1011.53 1012.69 1013.66 1014.76 1015.12 1016.59 1017.19 1018.39 1019.60 1020.37 1021.01 1021.61 1022.19 1022.73
1002.45 1002.82 1003.75 1004.75 1005.59 1006.45 1007.25 1007.83 1008.32 1008.76 1009.09 1009.18 1009.23 1009.39 1009.44 1009.22 1008.89 1008.25 1008.96 1009.24 1008.64 1008.23 1009.39 1010.88 1012.46 1012.55 1012.39 1012.23 1012.19 1012.16 1012.11 1011.91 1011.40 1011.04 1011.28 1011.55 1012.13 1012.06 1011.58 1011.51 1012.54 1013.24 1013.92 1014.68 1015.58 1016.60 1017.28 1018.54 1019.72 1020.54 1021.27 1022.05 1022.76 1023.27
1002.37 1003.03 1004.05 1005.05 1005.90 1006.76 1007.53 1008.15 1008.56 1008.99 1009.30 1009.53 1009.77 1009.83 1009.81 1009.40 1008.99 1009.37 1010.50 1010.53 1010.31 1009.43 1009.83 1011.11 1012.02 1012.73 1012.64 1012.57 1012.59 1012.54 1012.53 1012.39 1011.82 1011.89 1011.73 1011.66 1012.28 1012.63 1012.36 1012.00 1013.19 1014.03 1014.81 1015.54 1016.17 1017.12 1018.14 1019.01 1019.63 1020.69 1021.54 1022.32 1023.21 1023.79
1002.35 1003.30 1004.35 1005.29 1006.19 1007.07 1007.87 1008.62 1009.12 1009.29 1009.63 1009.95 1010.09 1010.12 1010.04 1009.75 1010.41 1010.66 1011.04 1010.94 1010.60 1009.28 1009.52 1010.74 1012.09 1012.63 1012.98 1012.46 1012.65 1013.00 1012.65 1012.56 1012.74 1012.46 1012.61 1012.05 1012.68 1012.65 1012.30 1012.65 1013.57 1014.49 1015.23 1016.19 1016.92 1017.12 1018.03 1018.99 1020.11 1020.95 1021.85 1022.72 1023.41 1024.09
1002.60 1003.71 1004.72 1005.67 1006.64 1007.49 1008.22 1008.88 1009.29 1009.57 1009.91 1010.20 1010.26 1010.18 1009.87 1010.40 1010.78 1011.20 1011.57 1011.13 1010.18 1009.96 1009.97 1010.90 1011.40 1012.39 1012.98 1012.90 1013.06 1013.27 1013.06 1013.02 1013.41 1012.76 1012.47 1012.78 1012.13 1012.51 1012.55 1012.76 1013.63 1014.57 1015.26 1016.12 1016.85 1017.31 1018.25 1019.33 1020.27 1021.41 1022.25 1022.90 1023.43 1024.30
1003.06 1004.17 1005.21 1006.22 1007.14 1008.01 1008.74 1009.32 1009.52 1009.90 1010.23 1010.36 1010.17 1010.44 1011.32 1011.82 1012.21 1011.54 1011.21 1010.67 1010.53 1010.49 1010.60 1010.89 1011.44 1012.37 1012.53 1012.76 1013.23 1013.56 1013.54 1013.24 1013.18 1013.17 1013.32 1013.04 1012.40 1012.81 1013.08 1013.00 1013.69 1014.68 1015.31 1016.11 1016.84 1017.73 1018.52 1019.41 1020.42 1021.37 1022.24 1023.05 1023.70 1024.60
1003.70 1004.79 1005.81 1006.79 1007.69 1008.48 1009.11 1009.60 1010.01 1010.29 1010.29 1010.13 1010.88 1011.78 1012.37 1012.32 1011.67 1011.69 1011.82 1011.31 1010.97 1010.94 1011.20 1011.67 1011.97 1012.53 1013.24 1012.88 1013.22 1013.58 1013.48 1013.66 1013.31 1013.65 1013.43 1012.78 1012.49 1012.99 1013.51 1013.58 1014.18 1014.92 1015.54 1016.45 1017.02 1017.73 1018.56 1019.44 1020.44 1021.39 1022.29 1023.16 1024.04 1024.97
1004.39 1005.47 1006.46 1007.42 1008.26 1008.97 1009.63 1010.15 1010.56 1010.43 1010.45 1010.66 1011.16 1011.94 1012.12 1012.00 1012.04 1011.97 1011.94 1011.85 1011.05 1010.89 1011.71 1011.95 1012.34 1012.71 1013.57 1013.40 1013.36 1014.07 1014.02 1014.24 1013.72 1014.08 1013.96 1013.14 1013.14 1013.61 1013.95 1014.27 1014.85 1015.45 1016.22 1016.81 1017.28 1018.15 1018.92 1019.76 1020.74 1021.61 1022.52 1023.53 1024.48 1025.41
1005.12 1006.17 1007.15 1008.10 1008.89 1009.60 1010.28 1010.87 1011.00 1011.14 1011.10 1011.15 1011.44 1012.22 1012.25 1012.61 1012.24 1011.91 1011.86 1011.54 1011.40 1011.67 1012.07 1012.27 1012.76 1013.15 1013.64 1013.64 1014.19 1014.28 1014.58 1014.48 1014.53 1014.35 1013.58 1013.08 1013.87 1014.33 1014.50 1014.99 1015.61 1016.29 1017.03 1017.71 1018.32 1019.05 1019.79 1020.54 1021.33 1022.09 1023.05 1024.03 1025.29 1026.41
1006.08 1007.13 1008.09 1008.90 1009.62 1010.30 1010.86 1011.19 1011.51 1011.62 1011.36 1011.37 1011.91 1012.59 1012.53 1012.65 1012.14 1011.74 1011.27 1011.38 1012.23 1011.99 1011.95 1012.28 1012.68 1012.80 1013.65 1014.07 1014.69 1014.71 1015.27 1014.90 1014.47 1013.98 1013.41 1013.73 1014.95 1015.23 1015.36 1015.79 1016.44 1017.26 1017.99 1018.59 1019.30 1019.97 1020.71 1021.53 1022.43 1023.15 1024.08 1025.21 1026.04 1027.09
1007.16 1008.11 1009.02 1009.89 1010.43 1010.99 1011.40 1011.72 1011.91 1011.69 1011.63 1011.89 1011.96 1012.51 1012.70 1012.90 1012.94 1013.02 1012.93 1012.84 1012.68 1012.20 1012.22 1012.42 1012.74 1013.12 1013.84 1014.50 1014.69 1015.08 1015.23 1014.43 1013.80 1013.43 1013.93 1015.10 1016.11 1016.23 1016.62 1017.02 1017.67 1018.52 1019.41 1020.00 1020.66 1021.35 1022.11 1022.89 1023.64 1024.51 1025.40 1026.04 1026.83 1027.63
1008.28 1009.31 1010.21 1010.67 1011.13 1011.52 1011.83 1011.96 1011.91 1012.03 1012.22 1012.46 1012.85 1013.17 1013.25 1013.21 1013.63 1013.63 1013.39 1013.38 1013.04 1012.68 1012.38 1012.20 1012.70 1013.27 1013.66 1013.89 1014.16 1014.09 1013.90 1013.51 1013.78 1014.24 1015.03 1015.84 1016.84 1017.34 1017.82 1018.28 1018.90 1019.49 1020.17 1020.88 1021.49 1022.14 1022.93 1023.67 1024.26 1024.96 1025.88 1026.50 1027.24 1027.81
1009.25 1010.02 1010.83 1011.37 1011.80 1012.02 1012.20 1011.89 1011.90 1012.47 1012.82 1013.09 1013.68 1013.88 1013.69 1013.55 1013.82 1014.00 1013.80 1013.67 1013.36 1012.87 1012.47 1012.29 1012.68 1013.15 1013.50 1013.45 1013.63 1013.54 1013.73 1014.11 1014.52 1015.11 1016.04 1017.22 1017.79 1018.28 1018.67 1019.13 1019.75 1020.15 1020.75 1021.35 1021.99 1022.62 1023.30 1024.05 1024.64 1025.37 1025.90 1026.69 1027.25 1027.78
1010.11 1011.05 1011.60 1011.90 1011.83 1012.14 1012.34 1012.39 1012.59 1013.02 1013.55 1013.97 1013.79 1014.32 1014.38 1014.54 1014.45 1014.48 1014.40 1013.97 1013.25 1012.75 1012.59 1012.64 1012.85 1013.17 1013.24 1013.33 1013.53 1014.06 1014.40 1014.97 1015.40 1016.03 1016.89 1017.91 1018.58 1019.04 1019.28 1019.63 1020.19 1020.56 1021.05 1021.68 1022.25 1022.92 1023.60 1024.17 1024.53 1024.89 1025.40 1026.38 1026.92 1027.58
1010.70 1011.48 1012.08 1012.08 1011.82 1011.97 1012.61 1013.22 1013.36 1013.48 1014.21 1014.42 1014.62 1014.72 1014.77 1014.93 1015.13 1015.07 1014.78 1014.28 1013.61 1013.21 1013.07 1013.04 1013.29 1013.28 1013.70 1013.95 1014.26 1014.71 1015.04 1015.21 1015.69 1016.52 1017.51 1018.62 1019.11 1019.52 1019.70 1020.14 1020.58 1020.89 1021.26 1021.83 1022.32 1022.65 1023.21 1023.86 1023.76 1024.09 1024.84 1025.89 1025.97 1026.52
1011.93 1012.32 1012.41 1012.34 1012.03 1012.07 1012.88 1013.51 1013.57 1013.58 1014.05 1014.69 1014.60 1014.70 1014.94 1015.28 1015.42 1015.28 1014.97 1014.75 1014.31 1013.77 1013.67 1013.69 1014.23 1014.91 1015.07 1015.47 1015.36 1015.43 1015.68 1015.84 1015.92 1016.33 1017.37 1018.41 1019.26 1019.80 1019.98 1020.25 1020.46 1020.95 1021.33 1021.84 1022.29 1022.53 1022.91 1023.47 1023.66 1024.01 1024.58 1025.24 1025.29 1025.76
1012.28 1012.94 1012.75 1012.25 1012.41 1012.85 1013.64 1013.84 1014.05 1014.38 1014.44 1014.54 1014.87 1014.69 1015.09 1015.18 1015.27 1015.27 1015.33 1015.14 1014.83 1014.58 1014.64 1015.23 1015.78 1016.39 1016.90 1017.07 1016.85 1016.57 1016.68 1016.38 1016.36 1016.70 1017.16 1018.07 1019.04 1019.23 1019.91 1020.20 1020.69 1020.85 1021.02 1021.43 1021.70 1022.35 1022.77 1022.96 1023.50 1023.98 1024.64 1025.13 1025.40 1025.69
1013.21 1013.31 1013.04 1013.22 1013.44 1013.97 1014.57 1014.93 1014.66 1014.86 1014.83 1014.97 1014.92 1014.98 1015.25 1015.50 1015.67 1015.86 1015.88 1015.53 1015.58 1016.24 1016.71 1016.82 1017.10 1017.16 1017.14 1017.63 1017.73 1017.72 1017.94 1017.70 1017.76 1017.94 1018.23 1018.51 1018.74 1019.18 1019.62 1020.07 1020.50 1020.72 1020.92 1021.31 1021.60 1022.03 1022.65 1022.84 1023.43 1024.19 1024.84 1025.21 1025.62 1025.96
1013.39 1013.20 1013.56 1013.88 1014.47 1014.94 1015.87 1015.30 1015.17 1015.14 1015.22 1015.36 1015.35 1015.29 1015.54 1015.74 1015.92 1016.15 1015.90 1016.01 1016.84 1017.71 1017.87 1017.94 1018.09 1018.12 1018.12 1018.29 1018.19 1018.24 1018.39 1018.12 1017.95 1018.30 1018.56 1018.79 1019.11 1019.53 1019.70 1020.19 1020.54 1020.89 1021.07 1021.41 1021.84 1022.28 1022.80 1023.12 1023.88 1024.38 1024.82 1025.35 1025.76 1026.27
1013.86 1014.66 1015.03 1015.13 1015.24 1016.01 1016.17 1015.70 1015.57 1015.61 1015.74 1015.71 1015.81 1016.00 1016.21 1016.22 1016.23 1016.03 1016.05 1016.56 1017.73 1018.09 1018.32 1018.52 1018.55 1018.35 1018.28 1018.36 1018.22 1018.51 1018.80 1018.55 1018.72 1019.01 1019.17 1019.17 1019.37 1019.94 1020.23 1020.60 1021.04 1021.33 1021.52 1021.76 1022.27 1022.64 1023.18 1023.72 1024.21 1024.57 1025.07 1025.42 1025.95 1026.36
1014.77 1016.31 1016.19 1016.09 1016.14 1016.18 1016.13 1016.08 1016.04 1016.00 1016.09 1016.32 1016.40 1016.49 1016.60 1016.77 1016.67 1016.70 1016.86 1017.53 1018.22 1018.80 1019.07 1019.04 1018.86 1018.85 1018.71 1018.71 1018.88 1019.32 1019.67 1019.37 1019.16 1019.33 1020.04 1020.02 1020.23 1020.55 1021.01 1021.46 1021.78 1022.06 1022.28 1022.38 1022.63 1023.01 1023.48 1024.01 1024.38 1024.77 1025.34 1025.73 1026.16 1026.60
1015.61 1016.55 1016.44 1016.25 1016.32 1016.16 1016.22 1016.06 1016.08 1016.23 1016.33 1016.53 1016.70 1016.83 1017.07 1017.11 1017.26 1017.23 1017.82 1018.94 1019.35 1019.76 1020.05 1020.10 1019.94 1019.52 1019.37 1019.63 1019.63 1019.92 1020.29 1020.30 1020.15 1020.27 1020.94 1020.95 1020.99 1021.21 1021.48 1021.81 1022.19 1022.59 1022.66 1022.72 1022.95 1023.27 1023.73 1024.22 1024.72 1025.31 1025.83 1026.33 1026.85 1027.30
1016.01 1016.43 1016.48 1016.55 1016.30 1016.46 1016.53 1016.59 1016.42 1016.43 1016.38 1016.31 1016.54 1017.07 1017.33 1017.39 1017.47 1018.54 1019.68 1020.37 1020.46 1021.00 1021.10 1021.06 1020.95 1020.59 1020.42 1020.45 1020.88 1021.26 1021.41 1021.46 1021.38 1021.67 1022.08 1022.27 1022.38 1022.54 1022.38 1022.35 1022.56 1023.12 1023.31 1023.42 1023.51 1023.69 1024.09 1024.66 1025.25 1025.88 1026.70 1027.35 1027.79 1028.10
1016.37 1016.46 1016.50 1016.85 1016.75 1016.80 1016.80 1016.91 1016.84 1016.67 1016.47 1016.47 1016.72 1017.15 1017.53 1017.81 1018.86 1020.16 1020.82 1021.50 1021.70 1021.69 1021.56 1021.59 1021.59 1021.47 1021.38 1021.56 1021.71 1021.90 1022.22 1022.50 1022.69 1022.78 1023.04 1023.36 1023.56 1023.71 1023.86 1024.05 1024.25 1024.32 1024.38 1024.38 1024.43 1024.56 1024.91 1025.44 1026.19 1027.08 1027.93 1028.63 1029.33 1029.85
1016.68 1016.73 1016.81 1017.01 1017.06 1017.17 1017.14 1017.03 1017.05 1017.58 1017.92 1017.64 1017.56 1017.86 1018.88 1020.11 1021.25 1021.53 1021.96 1022.19 1022.14 1021.96 1021.64 1021.68 1021.98 1022.13 1022.24 1022.37 1022.40 1022.52 1022.62 1022.66 1022.57 1022.63 1022.74 1023.28 1023.92 1024.66 1024.73 1024.85 1025.09 1025.36 1025.74 1026.03 1026.15 1026.25 1026.57 1027.14 1027.88 1028.68 1029.39 1030.03 1030.70 1031.20
1016.88 1016.98 1016.98 1017.17 1017.27 1017.20 1017.79 1018.21 1018.34 1018.86 1018.87 1019.08 1019.24 1019.67 1020.28 1021.29 1022.39 1022.90 1022.72 1022.56 1022.40 1022.39 1022.50 1022.49 1022.48 1022.36 1022.39 1022.54 1022.99 1023.39 1023.76 1023.71 1023.50 1023.05 1022.80 1023.49 1024.57 1025.27 1025.53 1025.78 1026.10 1026.51 1026.94 1027.42 1027.92 1028.55 1029.05 1029.35 1029.81 1030.22 1030.58 1031.07 1031.66 1032.24
1017.35 1017.41 1017.33 1017.37 1017.44 1018.23 1018.75 1019.21 1019.42 1019.57 1019.59 1019.58 1019.94 1019.90 1020.38 1021.66 1022.80 1023.52 1023.79 1023.81 1023.44 1023.17 1022.94 1022.97 1023.14 1023.26 1023.01 1023.18 1023.41 1023.69 1024.28 1024.83 1024.71 1024.48 1024.48 1025.03 1025.66 1026.14 1026.56 1026.84 1027.12 1027.45 1027.80 1028.15 1028.55 1029.03 1029.54 1030.00 1030.54 1031.10 1031.69 1032.23 1032.77 1033.19
1017.73 1017.64 1017.61 1017.76 1018.15 1019.07 1019.39 1019.20 1019.27 1019.41 1019.72 1019.88 1020.12 1020.72 1021.37 1021.66 1022.31 1023.76 1025.00 1024.53 1023.65 1023.79 1024.24 1023.99 1024.28 1024.84 1024.93 1025.02 1025.14 1025.32 1025.53 1025.88 1026.01 1026.05 1026.13 1026.45 1026.87 1027.31 1027.63 1027.90 1028.16 1028.42 1028.77 1029.21 1029.68 1030.11 1030.51 1030.94 1031.55 1032.16 1032.77 1033.31 1033.82 1034.32
1018.22 1018.31 1018.38 1018.46 1018.76 1019.02 1019.41 1019.48 1019.42 1019.61 1019.94 1020.05 1020.61 1021.15 1021.49 1022.06 1023.06 1024.72 1025.79 1025.89 1025.60 1025.35 1025.52 1025.76 1025.99 1026.12 1026.21 1026.26 1026.45 1026.79 1027.16 1027.53 1027.70 1027.72 1027.84 1027.93 1028.08 1028.32 1028.57 1028.89 1029.24 1029.61 1029.96 1030.40 1030.90 1031.35 1031.78 1032.22 1032.74 1033.31 1033.86 1034.35 1034.81 1035.22
Thickness
5340 5344 5350 5351 5352 5354 5356 5358 5361 5364 5365 5368 5375 5380 5387 5395 5403 5415 5425 5436 5452 5451 5446 5451 5454 5454 5461 5467 5465 5465 5458 5461 5466 5480 5492 5497 5502 5499 5498 5503 5495 5495 5493 5484 5489 5493 5478 5451 5442 5446 5436 5436 5432 5429
5338 5343 5348 5350 5351 5352 5353 5355 5358 5359 5360 5365 5372 5378 5382 5391 5403 5415 5426 5428 5441 5444 5430 5430 5433 5440 5449 5455 5468 5458 5472 5473 5478 5487 5492 5499 5490 5490 5502 5485 5482 5482 5484 5481 5461 5443 5420 5428 5432 5434 5433 5427 5424 5420
5336 5343 5348 5348 5349 5349 5350 5351 5353 5355 5358 5360 5369 5376 5383 5391 5404 5415 5424 5431 5434 5432 5434 5435 5429 5431 5438 5444 5451 5462 5462 5462 5466 5473 5482 5485 5487 5495 5487 5496 5481 5466 5464 5458 5439 5414 5414 5413 5416 5420 5419 5415 5410 5405
5335 5344 5347 5347 5346 5346 5347 5348 5350 5352 5355 5362 5369 5377 5380 5391 5401 5412 5420 5422 5435 5440 5426 5416 5423 5425 5432 5441 5448 5455 5455 5455 5461 5469 5476 5481 5483 5478 5489 5485 5481 5472 5459 5438 5414 5410 5410 5408 5402 5401 5401 5398 5394 5391
5334 5344 5345 5345 5344 5343 5344 5344 5346 5351 5356 5362 5368 5374 5383 5391 5401 5407 5407 5416 5425 5439 5426 5420 5421 5422 5429 5437 5444 5448 5452 5457 5462 5465 5469 5475 5476 5472 5472 5470 5472 5460 5446 5436 5445 5423 5425 5412 5401 5395 5390 5387 5384 5381
5337 5342 5342 5341 5341 5341 5342 5342 5344 5348 5353 5360 5367 5372 5378 5387 5396 5406 5398 5411 5421 5432 5426 5413 5413 5417 5425 5432 5437 5441 5446 5451 5460 5466 5465 5464 5458 5464 5466 5468 5456 5450 5447 5440 5426 5422 5419 5407 5396 5390 5384 5379 5375 5373
5337 5340 5339 5338 5338 5338 5338 5339 5342 5345 5349 5355 5361 5368 5374 5385 5395 5407 5407 5408 5410 5422 5420 5413 5412 5415 5422 5428 5432 5437 5440 5444 5455 5455 5458 5462 5456 5453 5452 5459 5443 5437 5430 5423 5419 5410 5401 5396 5392 5385 5379 5375 5368 5366
5338 5338 5337 5337 5336 5335 5334 5334 5337 5343 5347 5352 5358 5366 5374 5383 5385 5392 5391 5396 5404 5423 5428 5416 5406 5414 5418 5428 5429 5430 5437 5442 5441 5446 5446 5454 5448 5448 5447 5448 5438 5428 5422 5413 5407 5409 5399 5394 5386 5380 5373 5367 5363 5359
5338 5337 5335 5334 5333 5332 5331 5332 5336 5341 5345 5350 5358 5366 5376 5380 5385 5385 5385 5393 5405 5417 5419 5415 5416 5407 5417 5421 5425 5427 5433 5431 5433 5440 5447 5444 5453 5438 5444 5443 5433 5424 5418 5410 5406 5404 5395 5384 5379 5371 5366 5363 5362 5356
5337 5335 5333 5331 5329 5328 5328 5330 5334 5339 5344 5349 5359 5363 5361 5366 5368 5378 5391 5398 5401 5407 5414 5417 5421 5407 5422 5423 5420 5421 5425 5431 5431 5437 5435 5435 5445 5439 5435 5438 5431 5420 5415 5408 5399 5391 5386 5379 5372 5366 5362 5359 5356 5350
5334 5332 5330 5328 5327 5326 5326 5329 5332 5337 5343 5353 5351 5351 5356 5361 5376 5379 5375 5390 5398 5401 5408 5408 5411 5406 5410 5417 5416 5422 5425 5426 5429 5428 5428 5439 5443 5433 5427 5428 5422 5414 5408 5400 5396 5390 5384 5378 5370 5363 5359 5355 5350 5343
5331 5329 5327 5325 5324 5324 5324 5325 5328 5337 5345 5353 5354 5353 5357 5365 5368 5373 5378 5384 5402 5407 5400 5403 5406 5410 5402 5413 5419 5414 5413 5415 5424 5423 5415 5426 5433 5425 5420 5417 5411 5405 5397 5392 5389 5381 5376 5370 5365 5360 5355 5349 5343 5337
5328 5325 5323 5322 5320 5320 5320 5320 5325 5331 5337 5345 5349 5344 5355 5354 5361 5372 5368 5391 5395 5394 5394 5399 5396 5400 5402 5411 5404 5410 5402 5411 5415 5407 5421 5435 5421 5415 5414 5409 5401 5393 5387 5380 5375 5368 5363 5359 5357 5353 5348 5341 5332 5324
5323 5320 5318 5317 5316 5316 5317 5320 5322 5327 5337 5343 5346 5341 5351 5351 5370 5385 5400 5400 5382 5390 5396 5399 5397 5406 5402 5397 5392 5399 5396 5405 5404 5407 5424 5429 5405 5403 5405 5401 5394 5384 5375 5370 5361 5356 5349 5345 5340 5337 5333 5326 5322 5314
5319 5316 5313 5310 5311 5312 5313 5316 5319 5326 5334 5336 5347 5343 5348 5354 5360 5362 5367 5372 5377 5390 5393 5395 5398 5402 5392 5384 5397 5393 5388 5402 5417 5426 5423 5408 5388 5391 5389 5387 5374 5365 5357 5351 5345 5339 5333 5328 5324 5322 5318 5317 5312 5306
5313 5309 5306 5306 5306 5308 5310 5314 5320 5324 5329 5333 5335 5340 5347 5354 5351 5358 5364 5361 5373 5383 5391 5400 5393 5390 5390 5399 5398 5401 5413 5418 5417 5414 5406 5397 5381 5378 5375 5370 5363 5358 5352 5345 5339 5334 5327 5321 5319 5317 5312 5309 5304 5301
5311 5308 5303 5302 5302 5305 5308 5316 5321 5320 5323 5328 5327 5331 5341 5350 5350 5351 5357 5362 5370 5380 5379 5396 5388 5390 5398 5401 5403 5412 5408 5408 5405 5399 5390 5373 5369 5367 5365 5360 5353 5351 5346 5341 5335 5330 5325 5320 5316 5310 5308 5302 5299 5296
5308 5303 5301 5301 5304 5305 5308 5313 5317 5319 5316 5319 5331 5328 5332 5333 5342 5344 5347 5359 5372 5381 5387 5388 5393 5390 5394 5396 5403 5399 5398 5391 5388 5384 5378 5364 5358 5357 5357 5354 5348 5345 5342 5336 5331 5325 5319 5314 5313 5313 5310 5300 5297 5292
5307 5303 5301 5303 5308 5310 5308 5307 5313 5314 5311 5315 5319 5323 5327 5330 5331 5335 5343 5354 5366 5374 5380 5385 5381 5397 5394 5396 5391 5388 5386 5389 5386 5376 5367 5352 5350 5349 5350 5345 5341 5338 5335 5330 5326 5325 5320 5314 5319 5316 5309 5299 5300 5295
5301 5301 5302 5304 5309 5312 5307 5306 5312 5318 5316 5314 5322 5325 5326 5326 5328 5331 5342 5346 5355 5368 5370 5379 5380 5374 5378 5374 5379 5380 5378 5378 5382 5381 5370 5358 5348 5341 5342 5341 5342 5334 5330 5325 5322 5321 5318 5313 5312 5310 5304 5297 5298 5292
5301 5298 5300 5306 5309 5308 5304 5306 5306 5308 5313 5316 5319 5328 5326 5331 5332 5336 5338 5346 5351 5363 5369 5362 5356 5353 5348 5348 5356 5365 5364 5371 5374 5373 5371 5360 5347 5348 5339 5337 5332 5330 5330 5325 5323 5316 5311 5311 5305 5301 5293 5289 5286 5282
5296 5297 5302 5302 5302 5301 5298 5299 5304 5306 5311 5313 5320 5325 5325 5326 5328 5329 5333 5343 5349 5341 5339 5342 5343 5348 5353 5343 5343 5346 5343 5349 5348 5347 5344 5344 5345 5342 5337 5333 5328 5326 5325 5319 5317 5312 5305 5304 5298 5290 5283 5279 5273 5269
5297 5301 5300 5300 5294 5293 5285 5298 5299 5305 5304 5308 5316 5320 5321 5323 5325 5326 5335 5340 5331 5323 5326 5329 5330 5332 5334 5332 5337 5337 5336 5342 5346 5342 5339 5338 5336 5331 5331 5325 5322 5317 5316 5312 5307 5302 5296 5293 5285 5279 5275 5268 5262 5256
5294 5285 5283 5287 5293 5282 5286 5293 5301 5303 5304 5308 5310 5308 5311 5315 5322 5330 5337 5337 5319 5321 5322 5322 5324 5329 5331 5332 5336 5333 5329 5332 5332 5328 5327 5329 5327 5321 5319 5315 5311 5307 5305 5302 5295 5291 5284 5278 5273 5269 5263 5259 5251 5245
5291 5276 5280 5280 5284 5287 5289 5291 5293 5298 5298 5298 5300 5303 5308 5311 5317 5324 5329 5324 5316 5312 5312 5315 5319 5320 5323 5325 5325 5320 5314 5318 5322 5321 5312 5313 5310 5308 5304 5299 5296 5293 5290 5287 5283 5279 5273 5267 5263 5259 5252 5247 5240 5233
5282 5272 5281 5283 5283 5290 5291 5294 5296 5295 5298 5295 5297 5305 5304 5308 5312 5322 5321 5301 5301 5300 5298 5299 5302 5309 5313 5310 5311 5308 5304 5303 5305 5305 5296 5296 5296 5294 5292 5289 5285 5280 5279 5276 5273 5268 5263 5258 5252 5245 5239 5232 5224 5217
5280 5277 5280 5281 5289 5289 5288 5289 5296 5298 5299 5302 5305 5301 5305 5311 5320 5303 5290 5285 5289 5284 5284 5286 5288 5294 5296 5297 5291 5287 5286 5285 5285 5283 5277 5275 5274 5273 5275 5277 5275 5268 5265 5262 5260 5257 5252 5246 5239 5232 5222 5214 5206 5200
5277 5278 5279 5277 5281 5287 5286 5286 5291 5296 5304 5309 5309 5305 5308 5314 5308 5283 5278 5273 5272 5274 5277 5277 5278 5280 5281 5279 5278 5276 5272 5269 5266 5264 5261 5259 5257 5256 5254 5252 5250 5249 5248 5247 5245 5242 5237 5231 5222 5213 5202 5193 5183 5175
5272 5276 5279 5274 5279 5282 5287 5293 5296 5287 5283 5294 5302 5307 5292 5275 5265 5267 5265 5264 5265 5268 5272 5273 5269 5268 5267 5266 5266 5265 5264 5263 5264 5264 5263 5258 5251 5242 5241 5239 5236 5233 5229 5225 5222 5220 5215 5209 5200 5191 5181 5172 5163 5154
5276 5278 5281 5280 5280 5290 5282 5276 5278 5270 5273 5273 5273 5270 5269 5261 5253 5252 5255 5258 5261 5261 5260 5261 5261 5264 5264 5263 5258 5253 5248 5247 5247 5253 5256 5250 5237 5230 5227 5224 5220 5216 5211 5205 5200 5193 5188 5183 5176 5170 5163 5155 5145 5136
5276 5275 5279 5283 5286 5273 5268 5263 5263 5263 5265 5268 5265 5272 5272 5257 5248 5244 5243 5243 5248 5251 5254 5253 5251 5250 5253 5253 5251 5248 5239 5231 5231 5231 5231 5226 5220 5216 5211 5208 5204 5200 5196 5192 5187 5182 5176 5169 5162 5153 5144 5135 5126 5118
5273 5276 5278 5278 5274 5261 5260 5265 5266 5267 5264 5264 5264 5259 5254 5258 5260 5242 5230 5234 5244 5243 5237 5240 5237 5230 5229 5227 5225 5223 5221 5218 5216 5214 5212 5209 5205 5200 5197 5193 5189 5186 5181 5176 5171 5166 5160 5153 5145 5136 5127 5117 5107 5097
5269 5268 5268 5268 5266 5264 5260 5261 5264 5262 5260 5262 5257 5254 5254 5254 5251 5228 5219 5218 5221 5223 5221 5219 5216 5215 5213 5212 5211 5207 5204 5201 5199 5197 5195 5193 5190 5187 5183 5179 5175 5170 5165 5160 5154 5148 5142 5135 5127 5117 5108 5098 5089 5080